When you browse on this site, cookies collect data to enhance your experience and personalize the content and advertising you see.
Visit our Privacy Policy to learn more. By continuing to use the site, you agree to this use of cookies and data.
  • In Belgium
  • List of Countries
  • For 7 days
  • Water Temperature
  • Satellite Maps
  • Weather Map
  • Weather Widgets
  • user-avatar
    Login

    Hourly Weather Horog

    Today, 22 January, Tuesday

    Time Temperature Precipitation Wind Pressure Humidity
    00:00 -19°C° 0 mm 2 mps 476 mmHg 74%
    01:00 -19°C° 0 mm 2 mps 476 mmHg 74%
    02:00 -19°C° 0 mm 2 mps 475 mmHg 74%
    03:00 -19°C° 0 mm 2 mps 475 mmHg 75%
    04:00 -19°C° 0 mm 2 mps 475 mmHg 75%
    05:00 -18°C° 0 mm 2 mps 475 mmHg 76%
    06:00 -18°C° 0.1 mm 2 mps 475 mmHg 76%
    07:00 -18°C° 0.1 mm 2 mps 475 mmHg 77%
    08:00 -18°C° 0.1 mm 2 mps 475 mmHg 78%
    09:00 -15°C° 0 mm 1 mps 476 mmHg 75%
    10:00 -13°C° 0 mm 1 mps 476 mmHg 72%
    11:00 -12°C° 0 mm 1 mps 477 mmHg 69%
    12:00 -11°C° 0 mm 1 mps 477 mmHg 69%
    13:00 -11°C° 0 mm 1 mps 477 mmHg 68%
    14:00 -10°C° 0 mm 1 mps 477 mmHg 67%
    15:00 -11°C° 0.1 mm 1 mps 476 mmHg 73%
    16:00 -12°C° 0.1 mm 1 mps 476 mmHg 79%
    17:00 -14°C° 0.1 mm 1 mps 475 mmHg 85%
    18:00 -14°C° 0 mm 1 mps 475 mmHg 86%
    19:00 -15°C° 0 mm 1 mps 475 mmHg 87%
    20:00 -16°C° 0 mm 1 mps 476 mmHg 88%
    21:00 -17°C° 0 mm 1 mps 476 mmHg 84%
    22:00 -20°C° 0 mm 2 mps 476 mmHg 81%
    23:00 -22°C° 0 mm 3 mps 476 mmHg 78%

    Tomorrow, 23 January, Wednesday

    Time Temperature Precipitation Wind Pressure Humidity
    00:00 -23°C° 0 mm 3 mps 476 mmHg 74%
    01:00 -23°C° 0 mm 3 mps 475 mmHg 71%
    02:00 -23°C° 0 mm 3 mps 475 mmHg 68%
    03:00 -24°C° 0 mm 3 mps 475 mmHg 67%
    04:00 -24°C° 0 mm 3 mps 475 mmHg 66%
    05:00 -24°C° 0 mm 3 mps 475 mmHg 65%
    06:00 -23°C° 0 mm 2 mps 476 mmHg 66%
    07:00 -21°C° 0 mm 2 mps 476 mmHg 68%
    08:00 -21°C° 0 mm 2 mps 477 mmHg 69%
    09:00 -19°C° 0 mm 2 mps 478 mmHg 68%
    10:00 -17°C° 0 mm 2 mps 479 mmHg 67%
    11:00 -13°C° 0 mm 1 mps 480 mmHg 66%
    12:00 -13°C° 0 mm 1 mps 480 mmHg 65%
    13:00 -12°C° 0 mm 1 mps 480 mmHg 64%
    14:00 -12°C° 0 mm 1 mps 480 mmHg 62%
    15:00 -13°C° 0.1 mm 1 mps 479 mmHg 71%
    16:00 -13°C° 0.1 mm 1 mps 479 mmHg 79%
    17:00 -14°C° 0.1 mm 1 mps 479 mmHg 87%
    18:00 -15°C° 0.2 mm 1 mps 480 mmHg 88%
    19:00 -15°C° 0.2 mm 1 mps 480 mmHg 90%
    20:00 -16°C° 0.2 mm 0 mps 480 mmHg 92%
    21:00 -16°C° 0.2 mm 1 mps 481 mmHg 91%
    22:00 -17°C° 0.2 mm 1 mps 481 mmHg 91%
    23:00 -17°C° 0.2 mm 1 mps 481 mmHg 91%

    Day after tomorrow, 24 January, Thursday

    Time Temperature Precipitation Wind Pressure Humidity
    00:00 -17°C° 0.1 mm 1 mps 481 mmHg 90%
    01:00 -18°C° 0.1 mm 1 mps 481 mmHg 89%
    02:00 -18°C° 0.1 mm 1 mps 481 mmHg 88%
    03:00 -21°C° 0.1 mm 2 mps 481 mmHg 86%
    04:00 -21°C° 0.1 mm 2 mps 481 mmHg 85%
    05:00 -23°C° 0.1 mm 2 mps 481 mmHg 84%
    06:00 -23°C° 0 mm 2 mps 481 mmHg 82%
    07:00 -24°C° 0 mm 2 mps 481 mmHg 79%
    08:00 -25°C° 0 mm 2 mps 481 mmHg 77%
    09:00 -23°C° 0 mm 2 mps 481 mmHg 74%
    10:00 -20°C° 0 mm 2 mps 482 mmHg 71%
    11:00 -18°C° 0 mm 2 mps 483 mmHg 68%
    12:00 -15°C° 0 mm 1 mps 483 mmHg 64%
    13:00 -15°C° 0 mm 1 mps 482 mmHg 61%
    14:00 -14°C° 0 mm 1 mps 482 mmHg 57%
    15:00 -16°C° 0 mm 1 mps 481 mmHg 63%
    16:00 -18°C° 0 mm 1 mps 480 mmHg 68%
    17:00 -20°C° 0 mm 1 mps 479 mmHg 74%
    18:00 -21°C° 0 mm 1 mps 479 mmHg 72%
    19:00 -25°C° 0 mm 2 mps 479 mmHg 70%
    20:00 -26°C° 0 mm 2 mps 479 mmHg 68%
    21:00 -27°C° 0 mm 2 mps 479 mmHg 67%
    22:00 -30°C° 0 mm 3 mps 479 mmHg 66%
    23:00 -30°C° 0 mm 3 mps 479 mmHg 64%

    25 January, Friday

    Time Temperature Precipitation Wind Pressure Humidity
    00:00 -31°C° 0 mm 3 mps 479 mmHg 64%
    01:00 -31°C° 0 mm 3 mps 478 mmHg 63%
    02:00 -32°C° 0 mm 3 mps 478 mmHg 63%
    03:00 -32°C° 0 mm 3 mps 478 mmHg 63%
    04:00 -32°C° 0 mm 3 mps 478 mmHg 63%
    05:00 -33°C° 0 mm 3 mps 477 mmHg 63%
    06:00 -33°C° 0 mm 3 mps 478 mmHg 63%
    07:00 -33°C° 0 mm 3 mps 478 mmHg 63%
    08:00 -33°C° 0 mm 3 mps 478 mmHg 63%
    09:00 -30°C° 0 mm 3 mps 479 mmHg 64%
    10:00 -25°C° 0 mm 3 mps 480 mmHg 65%
    11:00 -22°C° 0 mm 3 mps 481 mmHg 66%
    12:00 -21°C° 0 mm 3 mps 481 mmHg 64%
    13:00 -18°C° 0 mm 2 mps 481 mmHg 62%
    14:00 -17°C° 0 mm 2 mps 482 mmHg 60%
    15:00 -18°C° 0 mm 2 mps 481 mmHg 62%
    16:00 -20°C° 0 mm 2 mps 479 mmHg 63%
    17:00 -23°C° 0 mm 2 mps 478 mmHg 65%
    18:00 -24°C° 0 mm 2 mps 478 mmHg 62%
    19:00 -27°C° 0 mm 3 mps 478 mmHg 59%
    20:00 -29°C° 0 mm 3 mps 478 mmHg 56%
    21:00 -30°C° 0 mm 3 mps 478 mmHg 56%
    22:00 -30°C° 0 mm 3 mps 478 mmHg 55%
    23:00 -31°C° 0 mm 3 mps 478 mmHg 55%

    26 January, Saturday

    Time Temperature Precipitation Wind Pressure Humidity
    00:00 -31°C° 0 mm 3 mps 478 mmHg 56%
    01:00 -31°C° 0 mm 3 mps 478 mmHg 57%
    02:00 -32°C° 0 mm 3 mps 477 mmHg 58%
    03:00 -32°C° 0 mm 3 mps 477 mmHg 59%
    04:00 -32°C° 0 mm 3 mps 477 mmHg 59%
    05:00 -32°C° 0 mm 3 mps 477 mmHg 60%
    06:00 -32°C° 0 mm 3 mps 477 mmHg 59%
    07:00 -32°C° 0 mm 3 mps 478 mmHg 58%
    08:00 -32°C° 0 mm 3 mps 478 mmHg 58%
    09:00 -29°C° 0 mm 3 mps 479 mmHg 60%
    10:00 -25°C° 0 mm 3 mps 480 mmHg 61%
    11:00 -22°C° 0 mm 3 mps 482 mmHg 63%
    12:00 -18°C° 0 mm 2 mps 482 mmHg 61%
    13:00 -17°C° 0 mm 2 mps 482 mmHg 59%
    14:00 -16°C° 0 mm 2 mps 482 mmHg 56%
    15:00 -17°C° 0 mm 2 mps 481 mmHg 58%
    16:00 -19°C° 0 mm 2 mps 480 mmHg 60%
    17:00 -21°C° 0 mm 2 mps 479 mmHg 61%
    18:00 -23°C° 0 mm 2 mps 479 mmHg 58%
    19:00 -26°C° 0 mm 3 mps 479 mmHg 55%
    20:00 -29°C° 0 mm 3 mps 479 mmHg 52%
    21:00 -29°C° 0 mm 3 mps 479 mmHg 52%
    22:00 -29°C° 0 mm 3 mps 479 mmHg 52%
    23:00 -30°C° 0 mm 3 mps 479 mmHg 51%

    27 January, Sunday

    Time Temperature Precipitation Wind Pressure Humidity
    00:00 -30°C° 0 mm 3 mps 479 mmHg 52%
    01:00 -30°C° 0 mm 3 mps 479 mmHg 52%
    02:00 -30°C° 0 mm 3 mps 479 mmHg 53%
    03:00 -30°C° 0 mm 3 mps 479 mmHg 53%
    04:00 -30°C° 0 mm 3 mps 479 mmHg 53%
    05:00 -30°C° 0 mm 3 mps 479 mmHg 52%
    06:00 -30°C° 0 mm 3 mps 480 mmHg 53%
    07:00 -29°C° 0 mm 3 mps 480 mmHg 53%
    08:00 -29°C° 0 mm 3 mps 480 mmHg 53%
    09:00 -25°C° 0 mm 3 mps 481 mmHg 55%
    10:00 -23°C° 0 mm 3 mps 482 mmHg 57%
    11:00 -19°C° 0 mm 3 mps 483 mmHg 59%
    12:00 -17°C° 0 mm 2 mps 483 mmHg 55%
    13:00 -15°C° 0 mm 2 mps 483 mmHg 52%
    14:00 -12°C° 0 mm 1 mps 484 mmHg 49%
    15:00 -13°C° 0 mm 1 mps 483 mmHg 52%
    16:00 -14°C° 0 mm 1 mps 482 mmHg 55%
    17:00 -16°C° 0 mm 1 mps 482 mmHg 58%
    18:00 -16°C° 0 mm 1 mps 482 mmHg 58%
    19:00 -19°C° 0 mm 2 mps 483 mmHg 57%
    20:00 -22°C° 0 mm 3 mps 483 mmHg 57%
    21:00 -23°C° 0 mm 3 mps 483 mmHg 56%
    22:00 -23°C° 0 mm 3 mps 483 mmHg 56%
    23:00 -24°C° 0 mm 3 mps 483 mmHg 56%
    Show more